Voltar ao catálogo

COSMOS 2499 DEB

AtivoPO
NORAD 49938·DEBRIS·🇷🇺 Russia

Lançado May 23, 2014 de Plesetsk Cosmodrome

Loading…

Próximas Passagens (próximas 24 horas)

TLE

AtualizadoSource: Space-Track

Época: Sep 12, 2026, 02:11 UTC

1 49938U 14028V   26255.09119009  .00002690  00000-0  65651-2 0  9999
2 49938  82.5630 175.5933 0306622   5.2572 355.1640 13.05493588230546

Acompanhe COSMOS 2499 DEB em tempo real com AllMySat

Download on the App Store